DLH404L EDDF-KJFK

Flight info

Callsign DLH404L
Flight time N/A
Altitude 38000
Route OBOKA4G OBOKA Z29 TORNU DCT BATAK DCT GALSO Q63 ERING L179 UGBET Q60 OKSAW DCT BIBPE DCT OKTAD DCT AZCAL DCT MEDOG DCT KRAGY DCT PEMOB DCT BAKUR DCT SHA DCT UNBEG DCT NEBIN/M082F370 NATG TUDEP/N0477F380 N526A TOPPS DCT ENE PARCH3
Aircraft A339/H-L/S

Departure

Time N/A
Airport Frankfurt Main Airport (EDDF)

Arrival

Time 2026-05-03 23:08
Airport John F. Kennedy International Airport (KJFK)
Time Latitude Longitude Altitude Speed Heading
2026-05-03 20:35 50.22817 -56.18311 37968 ft 414 kts 242°
2026-05-03 20:35 50.20131 -56.26258 37967 ft 414 kts 242°
2026-05-03 20:36 50.17438 -56.34203 37959 ft 411 kts 242°
2026-05-03 20:36 50.14772 -56.42047 37961 ft 411 kts 242°
2026-05-03 20:37 50.12082 -56.49933 37960 ft 412 kts 242°
2026-05-03 20:37 50.09389 -56.57803 37960 ft 412 kts 242°
2026-05-03 20:38 50.06690 -56.65667 37954 ft 412 kts 241°
2026-05-03 20:38 50.03986 -56.73523 37960 ft 412 kts 241°
2026-05-03 20:39 50.01274 -56.81371 37957 ft 411 kts 241°
2026-05-03 20:39 49.98581 -56.89145 37954 ft 411 kts 241°
2026-05-03 20:40 49.95862 -56.96969 37942 ft 410 kts 241°
2026-05-03 20:40 49.93146 -57.04763 37941 ft 410 kts 241°
2026-05-03 20:41 49.90430 -57.12533 37932 ft 408 kts 241°
2026-05-03 20:41 49.87726 -57.20242 37932 ft 407 kts 241°
2026-05-03 20:42 49.85012 -57.27959 37915 ft 407 kts 240°
2026-05-03 20:42 49.82314 -57.35606 37912 ft 407 kts 240°
2026-05-03 20:43 49.79590 -57.43305 37896 ft 407 kts 240°
2026-05-03 20:43 49.76867 -57.50977 37901 ft 406 kts 240°
2026-05-03 20:44 49.74167 -57.58566 37875 ft 401 kts 240°
2026-05-03 20:44 49.71460 -57.66147 37882 ft 403 kts 240°
2026-05-03 20:45 49.68766 -57.73673 37852 ft 404 kts 240°
2026-05-03 20:45 49.66036 -57.81273 37850 ft 404 kts 240°
2026-05-03 20:46 49.63311 -57.88841 37846 ft 403 kts 240°
2026-05-03 20:46 49.60582 -57.96400 37846 ft 403 kts 239°
2026-05-03 20:47 49.57847 -58.03948 37844 ft 403 kts 239°
2026-05-03 20:47 49.55121 -58.11450 37829 ft 403 kts 239°
2026-05-03 20:48 49.52376 -58.18984 37826 ft 403 kts 239°
2026-05-03 20:48 49.49627 -58.26507 37814 ft 403 kts 239°
2026-05-03 20:49 49.46874 -58.34021 37813 ft 403 kts 239°
2026-05-03 20:49 49.44112 -58.41534 37802 ft 403 kts 239°
2026-05-03 20:50 49.41347 -58.49034 37805 ft 404 kts 238°
2026-05-03 20:50 49.38571 -58.56546 37796 ft 404 kts 238°
2026-05-03 20:51 49.35794 -58.64036 37795 ft 404 kts 238°
2026-05-03 20:51 49.33019 -58.71504 37781 ft 406 kts 238°
2026-05-03 20:52 49.30216 -58.79019 37778 ft 406 kts 238°
2026-05-03 20:52 49.27400 -58.86549 37782 ft 407 kts 238°
2026-05-03 20:53 49.24600 -58.94013 37783 ft 407 kts 238°
2026-05-03 20:53 49.21777 -59.01520 37776 ft 407 kts 238°
2026-05-03 20:54 49.18941 -59.09038 37776 ft 407 kts 238°
2026-05-03 20:54 49.14680 -59.20296 37772 ft 408 kts 238°
2026-05-03 20:55 49.11833 -59.27792 37774 ft 408 kts 238°
2026-05-03 20:55 49.08990 -59.35254 37774 ft 408 kts 238°
2026-05-03 20:56 49.06128 -59.42744 37791 ft 408 kts 237°
2026-05-03 20:56 49.03281 -59.50176 37783 ft 407 kts 237°
2026-05-03 20:57 49.00413 -59.57640 37776 ft 407 kts 237°
2026-05-03 20:57 48.97538 -59.65099 37763 ft 409 kts 237°
2026-05-03 20:58 48.94670 -59.72523 37763 ft 409 kts 237°
2026-05-03 20:58 48.91775 -59.79995 37778 ft 410 kts 236°
2026-05-03 20:59 48.88886 -59.87432 37771 ft 406 kts 236°
2026-05-03 20:59 48.86025 -59.94774 37767 ft 407 kts 236°
2026-05-03 21:00 48.84090 -59.99727 37775 ft 407 kts 236°
2026-05-03 21:00 48.80240 -60.09558 37778 ft 406 kts 236°
2026-05-03 21:01 48.77359 -60.16889 37785 ft 407 kts 236°
2026-05-03 21:01 48.74473 -60.24218 37771 ft 403 kts 235°
2026-05-03 21:02 48.71588 -60.31517 37768 ft 404 kts 235°
2026-05-03 21:02 48.68691 -60.38827 37771 ft 404 kts 235°
2026-05-03 21:03 48.65807 -60.46087 37771 ft 404 kts 235°
2026-05-03 21:03 48.63389 -60.52158 37804 ft 404 kts 235°
2026-05-03 21:04 48.60456 -60.59503 37787 ft 410 kts 234°
2026-05-03 21:04 48.57505 -60.66875 37784 ft 410 kts 234°
2026-05-03 21:05 48.54549 -60.74239 37762 ft 411 kts 234°
2026-05-03 21:05 48.51599 -60.81565 37755 ft 410 kts 234°
2026-05-03 21:06 48.48632 -60.88917 37757 ft 410 kts 234°
2026-05-03 21:06 48.45659 -60.96262 37763 ft 410 kts 234°
2026-05-03 21:07 48.42701 -61.03547 37780 ft 410 kts 234°
2026-05-03 21:07 48.39718 -61.10877 37780 ft 410 kts 234°
2026-05-03 21:08 48.36727 -61.18205 37760 ft 411 kts 234°
2026-05-03 21:08 48.33731 -61.25526 37763 ft 411 kts 233°
2026-05-03 21:09 48.30703 -61.32900 37766 ft 417 kts 233°
2026-05-03 21:09 48.27666 -61.40283 37769 ft 416 kts 233°
2026-05-03 21:10 48.24602 -61.47702 37767 ft 422 kts 234°
2026-05-03 21:10 48.21493 -61.55218 37769 ft 424 kts 234°
2026-05-03 21:11 48.18368 -61.62754 37771 ft 426 kts 234°
2026-05-03 21:11 48.15234 -61.70286 37766 ft 429 kts 234°
2026-05-03 21:12 48.12074 -61.77863 37759 ft 428 kts 234°
2026-05-03 21:12 48.08908 -61.85430 37761 ft 428 kts 234°
2026-05-03 21:13 48.05758 -61.92936 37762 ft 428 kts 234°
2026-05-03 21:13 48.02575 -62.00499 37739 ft 430 kts 234°
2026-05-03 21:14 47.99380 -62.08072 37738 ft 431 kts 234°
2026-05-03 21:14 47.96173 -62.15654 37747 ft 432 kts 234°
2026-05-03 21:15 47.92954 -62.23239 37743 ft 432 kts 234°
2026-05-03 21:15 47.89749 -62.30774 37790 ft 433 kts 233°
2026-05-03 21:16 47.86509 -62.38369 37739 ft 434 kts 233°
2026-05-03 21:16 47.83278 -62.45919 37735 ft 434 kts 233°
2026-05-03 21:17 47.80557 -62.52261 37742 ft 434 kts 233°
2026-05-03 21:17 47.76776 -62.61050 37732 ft 434 kts 233°
2026-05-03 21:18 47.73516 -62.68604 37732 ft 434 kts 233°
2026-05-03 21:18 47.70251 -62.76152 37725 ft 434 kts 233°
2026-05-03 21:19 47.67013 -62.83616 37729 ft 434 kts 233°
2026-05-03 21:19 47.63740 -62.91138 37720 ft 434 kts 233°
2026-05-03 21:20 47.60461 -62.98655 37727 ft 434 kts 233°
2026-05-03 21:20 47.57181 -63.06152 37712 ft 434 kts 233°
2026-05-03 21:21 47.53902 -63.13627 37703 ft 434 kts 233°
2026-05-03 21:21 47.50602 -63.21131 37702 ft 436 kts 232°
2026-05-03 21:22 47.47285 -63.28652 37703 ft 437 kts 232°
2026-05-03 21:22 47.43957 -63.36176 37697 ft 438 kts 232°
2026-05-03 21:23 47.40629 -63.43680 37702 ft 439 kts 232°
2026-05-03 21:23 47.37276 -63.51222 37722 ft 439 kts 232°
2026-05-03 21:24 47.33919 -63.58751 37703 ft 439 kts 232°
2026-05-03 21:24 47.30550 -63.66284 37722 ft 440 kts 232°
2026-05-03 21:25 47.27193 -63.73769 37698 ft 440 kts 232°
2026-05-03 21:25 47.23805 -63.81304 37697 ft 441 kts 232°
2026-05-03 21:26 47.20419 -63.88817 37698 ft 441 kts 232°
2026-05-03 21:26 47.17021 -63.96332 37695 ft 441 kts 232°
2026-05-03 21:27 47.13616 -64.03843 37691 ft 441 kts 232°
2026-05-03 21:27 47.10207 -64.11344 37672 ft 441 kts 232°
2026-05-03 21:28 47.06811 -64.18796 37683 ft 441 kts 232°
2026-05-03 21:28 47.03388 -64.26285 37686 ft 441 kts 232°
2026-05-03 21:29 46.99957 -64.33773 37678 ft 442 kts 232°
2026-05-03 21:29 46.96549 -64.41189 37679 ft 442 kts 232°
2026-05-03 21:30 46.93115 -64.48645 37672 ft 442 kts 232°
2026-05-03 21:30 46.89674 -64.56097 37673 ft 442 kts 232°
2026-05-03 21:31 46.86217 -64.63562 37687 ft 442 kts 232°
2026-05-03 21:31 46.82755 -64.71015 37666 ft 443 kts 232°
2026-05-03 21:32 46.79308 -64.78417 37684 ft 443 kts 232°
2026-05-03 21:32 46.75823 -64.85881 37662 ft 445 kts 232°
2026-05-03 21:33 46.72326 -64.93350 37667 ft 446 kts 232°
2026-05-03 21:33 46.68813 -65.00828 37667 ft 447 kts 232°
2026-05-03 21:34 46.65297 -65.08300 37672 ft 447 kts 232°
2026-05-03 21:34 46.61791 -65.15729 37675 ft 448 kts 232°
2026-05-03 21:35 46.58254 -65.23204 37668 ft 448 kts 232°
2026-05-03 21:35 46.54711 -65.30669 37666 ft 449 kts 232°
2026-05-03 21:36 46.51155 -65.38142 37657 ft 449 kts 232°
2026-05-03 21:36 46.47597 -65.45602 37661 ft 449 kts 232°
2026-05-03 21:37 46.44055 -65.53006 37655 ft 449 kts 232°
2026-05-03 21:37 46.40483 -65.60454 37685 ft 450 kts 232°
2026-05-03 21:38 46.36895 -65.67912 37650 ft 451 kts 232°
2026-05-03 21:38 46.33304 -65.75361 37655 ft 450 kts 232°
2026-05-03 21:39 46.29730 -65.82754 37654 ft 450 kts 232°
2026-05-03 21:39 46.26130 -65.90183 37650 ft 450 kts 232°
2026-05-03 21:40 46.22526 -65.97598 37639 ft 450 kts 232°
2026-05-03 21:40 46.18936 -66.04964 37640 ft 450 kts 232°
2026-05-03 21:41 46.15318 -66.12371 37640 ft 450 kts 232°
2026-05-03 21:41 46.11704 -66.19749 37640 ft 450 kts 232°
2026-05-03 21:42 46.08080 -66.27127 37635 ft 450 kts 232°
2026-05-03 21:42 46.04478 -66.34442 37629 ft 450 kts 232°
2026-05-03 21:43 46.00844 -66.41802 37622 ft 451 kts 232°
2026-05-03 21:43 45.97205 -66.49154 37618 ft 451 kts 232°
2026-05-03 21:44 45.93555 -66.56509 37630 ft 451 kts 232°
2026-05-03 21:44 45.89927 -66.63801 37629 ft 451 kts 232°
2026-05-03 21:45 45.86275 -66.71122 37633 ft 451 kts 232°
2026-05-03 21:45 45.82621 -66.78428 37634 ft 451 kts 232°
2026-05-03 21:46 45.78954 -66.85737 37635 ft 451 kts 232°
2026-05-03 21:46 45.75290 -66.93026 37636 ft 451 kts 232°
2026-05-03 21:47 45.71618 -67.00310 37644 ft 451 kts 232°
2026-05-03 21:47 45.67970 -67.07529 37646 ft 451 kts 232°
2026-05-03 21:48 45.64289 -67.14795 37647 ft 452 kts 232°
2026-05-03 21:48 45.60591 -67.22086 37646 ft 452 kts 232°
2026-05-03 21:49 45.56893 -67.29361 37655 ft 452 kts 232°
2026-05-03 21:49 45.53215 -67.36579 37655 ft 452 kts 232°
2026-05-03 21:50 45.49504 -67.43841 37661 ft 453 kts 232°
2026-05-03 21:50 45.45779 -67.51114 37661 ft 454 kts 232°
2026-05-03 21:51 45.42075 -67.58330 37675 ft 453 kts 232°
2026-05-03 21:51 45.38349 -67.65567 37677 ft 453 kts 232°
2026-05-03 21:52 45.34509 -67.72656 37669 ft 452 kts 230°
2026-05-03 21:52 45.31171 -67.78393 37672 ft 452 kts 228°
2026-05-03 21:53 45.26932 -67.84992 37668 ft 452 kts 227°
2026-05-03 21:53 45.22725 -67.91628 37680 ft 452 kts 227°
2026-05-03 21:54 45.18507 -67.98274 37682 ft 453 kts 227°
2026-05-03 21:54 45.14273 -68.04911 37685 ft 453 kts 227°
2026-05-03 21:55 45.10062 -68.11491 37702 ft 454 kts 227°
2026-05-03 21:55 45.05811 -68.18116 37704 ft 454 kts 227°
2026-05-03 21:56 45.01558 -68.24729 37705 ft 454 kts 227°
2026-05-03 21:56 44.97300 -68.31335 37698 ft 454 kts 227°
2026-05-03 21:57 44.93062 -68.37894 37694 ft 455 kts 227°
2026-05-03 21:57 44.88792 -68.44487 37689 ft 455 kts 227°
2026-05-03 21:58 44.84515 -68.51075 37711 ft 454 kts 227°
2026-05-03 21:58 44.80265 -68.57606 37717 ft 454 kts 227°
2026-05-03 21:59 44.75981 -68.64175 37714 ft 454 kts 227°
2026-05-03 21:59 44.71701 -68.70720 37705 ft 455 kts 227°
2026-05-03 22:00 44.67411 -68.77267 37696 ft 455 kts 227°
2026-05-03 22:00 44.63115 -68.83806 37702 ft 455 kts 227°
2026-05-03 22:01 44.58820 -68.90331 37708 ft 455 kts 227°
2026-05-03 22:01 44.54538 -68.96816 37711 ft 455 kts 227°
2026-05-03 22:02 44.50232 -69.03328 37716 ft 455 kts 227°
2026-05-03 22:02 44.45945 -69.09794 37721 ft 455 kts 227°
2026-05-03 22:03 44.41636 -69.16276 37720 ft 454 kts 227°
2026-05-03 22:03 44.37329 -69.22741 37724 ft 454 kts 227°
2026-05-03 22:04 44.33011 -69.29209 37722 ft 454 kts 227°
2026-05-03 22:04 44.28698 -69.35654 37717 ft 454 kts 227°
2026-05-03 22:05 44.24404 -69.42055 37724 ft 454 kts 227°
2026-05-03 22:05 44.20075 -69.48494 37728 ft 454 kts 227°
2026-05-03 22:06 44.15741 -69.54925 37737 ft 454 kts 227°
2026-05-03 22:06 44.11414 -69.61331 37734 ft 454 kts 227°
2026-05-03 22:07 44.07114 -69.67683 37735 ft 453 kts 227°
2026-05-03 22:07 44.02788 -69.74060 37731 ft 453 kts 227°
2026-05-03 22:08 43.98459 -69.80426 37729 ft 453 kts 227°
2026-05-03 22:08 43.94128 -69.86779 37754 ft 452 kts 227°
2026-05-03 22:09 43.89801 -69.93113 37751 ft 452 kts 227°
2026-05-03 22:10 43.83311 -70.02586 37751 ft 452 kts 227°
2026-05-03 22:10 43.79001 -70.08860 37752 ft 451 kts 227°
2026-05-03 22:11 43.74664 -70.15159 37758 ft 451 kts 227°
2026-05-03 22:11 43.70351 -70.21410 37755 ft 451 kts 227°
2026-05-03 22:12 43.66000 -70.27700 37756 ft 451 kts 227°
2026-05-03 22:12 43.61653 -70.33970 37772 ft 452 kts 227°
2026-05-03 22:13 43.57300 -70.40237 37779 ft 452 kts 227°
2026-05-03 22:13 43.52969 -70.46457 37784 ft 452 kts 227°
2026-05-03 22:14 43.48607 -70.52708 37791 ft 452 kts 227°
2026-05-03 22:14 43.43983 -70.58582 37786 ft 454 kts 219°
2026-05-03 22:15 43.38570 -70.63132 37785 ft 458 kts 208°
2026-05-03 22:15 43.32632 -70.66252 37773 ft 460 kts 202°
2026-05-03 22:16 43.26591 -70.69206 37777 ft 460 kts 203°
2026-05-03 22:16 43.20557 -70.72173 37783 ft 460 kts 203°
2026-05-03 22:17 43.14520 -70.75132 37794 ft 460 kts 203°
2026-05-03 22:17 43.08480 -70.78083 37802 ft 460 kts 203°
2026-05-03 22:18 43.02455 -70.81020 37781 ft 460 kts 203°
2026-05-03 22:18 42.96452 -70.83941 37783 ft 460 kts 203°
2026-05-03 22:19 42.90420 -70.86869 37793 ft 460 kts 203°
2026-05-03 22:19 42.84388 -70.89793 37829 ft 460 kts 203°
2026-05-03 22:20 42.78348 -70.92712 37832 ft 460 kts 203°
2026-05-03 22:20 42.72317 -70.95621 37833 ft 460 kts 203°
2026-05-03 22:21 42.66270 -70.98534 37813 ft 460 kts 203°
2026-05-03 22:21 42.60275 -71.01414 37815 ft 459 kts 203°
2026-05-03 22:22 42.54240 -71.04307 37816 ft 459 kts 203°
2026-05-03 22:22 42.48211 -71.07193 37826 ft 459 kts 203°
2026-05-03 22:23 42.42181 -71.10072 37826 ft 459 kts 203°
2026-05-03 22:23 42.36156 -71.12943 37825 ft 459 kts 203°
2026-05-03 22:24 42.30161 -71.15795 37843 ft 459 kts 203°
2026-05-03 22:24 42.24122 -71.18660 37844 ft 458 kts 204°
2026-05-03 22:25 42.18099 -71.21512 37837 ft 457 kts 204°
2026-05-03 22:25 42.12127 -71.24336 37837 ft 457 kts 204°
2026-05-03 22:26 42.06115 -71.27173 37840 ft 457 kts 204°
2026-05-03 22:26 42.00099 -71.30004 37847 ft 457 kts 204°
2026-05-03 22:27 41.94129 -71.32810 37849 ft 457 kts 204°
2026-05-03 22:27 41.90608 -71.34462 37849 ft 457 kts 204°
2026-05-03 22:28 41.85619 -71.36798 37848 ft 456 kts 204°
2026-05-03 22:28 41.78835 -71.39972 37862 ft 455 kts 204°
2026-05-03 22:29 41.73119 -71.43386 37859 ft 449 kts 213°
2026-05-03 22:29 41.67930 -71.47944 37860 ft 443 kts 222°
2026-05-03 22:30 41.63211 -71.53230 37849 ft 442 kts 224°
2026-05-03 22:30 41.58501 -71.58512 37851 ft 443 kts 223°
2026-05-03 22:31 41.53767 -71.63781 37851 ft 443 kts 223°
2026-05-03 22:31 41.49040 -71.69026 37862 ft 441 kts 223°
2026-05-03 22:32 41.44341 -71.74232 37869 ft 441 kts 223°
2026-05-03 22:32 41.39617 -71.79456 37869 ft 441 kts 223°
2026-05-03 22:33 41.34888 -71.84674 37869 ft 441 kts 223°
2026-05-03 22:33 41.30155 -71.89886 37866 ft 441 kts 223°
2026-05-03 22:34 41.25412 -71.95099 37876 ft 441 kts 223°
2026-05-03 22:34 41.20674 -72.00298 37877 ft 441 kts 223°
2026-05-03 22:35 41.15968 -72.05438 37865 ft 438 kts 222°
2026-05-03 22:35 41.13385 -72.07610 37453 ft 444 kts 211°
2026-05-03 22:35 41.10471 -72.09060 36820 ft 453 kts 200°
2026-05-03 22:35 41.07417 -72.10124 36064 ft 451 kts 205°
2026-05-03 22:36 41.04606 -72.11865 35270 ft 444 kts 217°
2026-05-03 22:36 41.02158 -72.14313 34462 ft 438 kts 228°
2026-05-03 22:36 41.00188 -72.17343 33573 ft 433 kts 239°
2026-05-03 22:36 40.98777 -72.20829 32691 ft 428 kts 251°
2026-05-03 22:37 40.97975 -72.24607 31738 ft 426 kts 262°
2026-05-03 22:37 40.97796 -72.28513 30853 ft 425 kts 272°
2026-05-03 22:37 40.97874 -72.32402 30230 ft 420 kts 271°
2026-05-03 22:37 40.97819 -72.36200 29603 ft 415 kts 268°
2026-05-03 22:38 40.97588 -72.39988 28912 ft 411 kts 265°
2026-05-03 22:38 40.97237 -72.43726 28227 ft 407 kts 264°
2026-05-03 22:38 40.96828 -72.47405 27551 ft 402 kts 264°
2026-05-03 22:38 40.96538 -72.49870 27107 ft 400 kts 264°
2026-05-03 22:39 40.96111 -72.53444 26460 ft 396 kts 264°
2026-05-03 22:39 40.95684 -72.57012 26040 ft 387 kts 264°
2026-05-03 22:39 40.95272 -72.60452 25880 ft 371 kts 264°
2026-05-03 22:39 40.94874 -72.63771 25751 ft 356 kts 264°
2026-05-03 22:40 40.94495 -72.66942 25621 ft 341 kts 265°
2026-05-03 22:40 40.94133 -72.69981 25499 ft 327 kts 265°
2026-05-03 22:40 40.93785 -72.72900 25382 ft 313 kts 265°
2026-05-03 22:40 40.93452 -72.75688 25281 ft 300 kts 265°
2026-05-03 22:41 40.93133 -72.78354 25178 ft 287 kts 265°
2026-05-03 22:41 40.92836 -72.80878 25021 ft 275 kts 267°
2026-05-03 22:41 40.92904 -72.83360 24603 ft 268 kts 284°
2026-05-03 22:41 40.93540 -72.85662 24219 ft 265 kts 298°
2026-05-03 22:42 40.94602 -72.87635 23857 ft 263 kts 311°
2026-05-03 22:42 40.96006 -72.89193 23481 ft 264 kts 324°
2026-05-03 22:42 40.97650 -72.90224 23051 ft 268 kts 336°
2026-05-03 22:42 40.99501 -72.90678 22608 ft 274 kts 350°
2026-05-03 22:43 41.01430 -72.90450 22170 ft 283 kts
2026-05-03 22:43 41.03296 -72.89488 21753 ft 293 kts 21°
2026-05-03 22:43 41.04927 -72.87803 21311 ft 304 kts 39°
2026-05-03 22:43 41.06146 -72.85470 20912 ft 314 kts 58°
2026-05-03 22:44 41.06788 -72.82672 20490 ft 322 kts 77°
2026-05-03 22:44 41.07104 -72.79786 20093 ft 319 kts 76°
2026-05-03 22:44 41.07442 -72.76894 19705 ft 316 kts 76°
2026-05-03 22:44 41.07794 -72.74030 19313 ft 313 kts 75°
2026-05-03 22:45 41.08153 -72.71187 18915 ft 311 kts 75°
2026-05-03 22:45 41.08512 -72.68367 18528 ft 309 kts 75°
2026-05-03 22:45 41.08666 -72.65527 18146 ft 311 kts 91°
2026-05-03 22:45 41.08187 -72.62730 17679 ft 313 kts 111°
2026-05-03 22:46 41.07066 -72.60264 17176 ft 312 kts 132°
2026-05-03 22:46 41.05438 -72.58408 16703 ft 306 kts 153°
2026-05-03 22:46 41.03535 -72.57331 16258 ft 297 kts 172°
2026-05-03 22:46 41.01525 -72.57037 15800 ft 286 kts 190°
2026-05-03 22:47 40.99615 -72.57483 15341 ft 274 kts 206°
2026-05-03 22:47 40.97934 -72.58550 14881 ft 263 kts 222°
2026-05-03 22:47 40.96576 -72.60094 14419 ft 253 kts 236°
2026-05-03 22:47 40.95589 -72.61965 13929 ft 245 kts 250°
2026-05-03 22:48 40.94995 -72.64031 13470 ft 236 kts 263°
2026-05-03 22:48 40.94736 -72.66144 12957 ft 232 kts 268°
2026-05-03 22:48 40.94500 -72.68249 12464 ft 230 kts 267°
2026-05-03 22:48 40.94241 -72.70325 12096 ft 225 kts 266°
2026-05-03 22:49 40.93974 -72.72390 12004 ft 230 kts 266°
2026-05-03 22:49 40.93705 -72.74451 12008 ft 229 kts 266°
2026-05-03 22:49 40.93433 -72.76535 12007 ft 230 kts 266°
2026-05-03 22:49 40.93162 -72.78619 12006 ft 230 kts 266°
2026-05-03 22:50 40.92886 -72.80707 12007 ft 235 kts 264°
2026-05-03 22:50 40.92167 -72.82808 12006 ft 267 kts 239°
2026-05-03 22:50 40.90729 -72.84433 11971 ft 279 kts 214°
2026-05-03 22:50 40.88917 -72.85411 11704 ft 282 kts 206°
2026-05-03 22:51 40.87098 -72.86332 11269 ft 278 kts 210°
2026-05-03 22:51 40.85373 -72.87459 10766 ft 274 kts 216°
2026-05-03 22:51 40.83759 -72.88761 10313 ft 269 kts 220°
2026-05-03 22:51 40.82236 -72.90143 10071 ft 265 kts 222°
2026-05-03 22:52 40.80744 -72.91571 10008 ft 268 kts 223°
2026-05-03 22:52 40.79245 -72.93019 10001 ft 267 kts 223°
2026-05-03 22:52 40.77740 -72.94473 10014 ft 268 kts 223°
2026-05-03 22:52 40.76238 -72.95919 9869 ft 268 kts 223°
2026-05-03 22:53 40.74728 -72.97368 9518 ft 268 kts 223°
2026-05-03 22:53 40.73232 -72.98796 9082 ft 265 kts 222°
2026-05-03 22:53 40.71747 -73.00204 8633 ft 260 kts 222°
2026-05-03 22:53 40.70269 -73.01608 8159 ft 258 kts 223°
2026-05-03 22:54 40.68961 -73.03168 8017 ft 250 kts 241°
2026-05-03 22:54 40.68339 -73.05228 8026 ft 239 kts 268°
2026-05-03 22:54 40.68220 -73.07406 8017 ft 237 kts 271°
2026-05-03 22:54 40.68112 -73.09574 8015 ft 237 kts 270°
2026-05-03 22:55 40.67984 -73.11747 8008 ft 238 kts 270°
2026-05-03 22:55 40.67842 -73.13913 7960 ft 236 kts 270°
2026-05-03 22:55 40.67542 -73.16016 7586 ft 243 kts 253°
2026-05-03 22:55 40.66711 -73.17958 7085 ft 248 kts 237°
2026-05-03 22:56 40.65554 -73.19638 6579 ft 247 kts 234°
2026-05-03 22:56 40.64391 -73.21290 6057 ft 244 kts 234°
2026-05-03 22:56 40.63241 -73.22930 5494 ft 243 kts 234°
2026-05-03 22:56 40.62120 -73.24537 5246 ft 231 kts 234°
2026-05-03 22:57 40.61066 -73.26025 5113 ft 214 kts 234°
2026-05-03 22:57 40.60074 -73.27416 4900 ft 205 kts 234°
2026-05-03 22:57 40.59094 -73.28779 4516 ft 205 kts 234°
2026-05-03 22:57 40.58117 -73.30139 4147 ft 203 kts 234°
2026-05-03 22:58 40.57169 -73.31474 3813 ft 202 kts 234°
2026-05-03 22:58 40.56219 -73.32817 3480 ft 201 kts 234°
2026-05-03 22:58 40.55258 -73.34163 3154 ft 200 kts 234°
2026-05-03 22:58 40.54323 -73.35468 2999 ft 190 kts 234°
2026-05-03 22:59 40.53445 -73.36675 3003 ft 180 kts 234°
2026-05-03 22:59 40.52571 -73.37878 3001 ft 182 kts 234°
2026-05-03 22:59 40.51702 -73.39067 3022 ft 178 kts 234°
2026-05-03 22:59 40.51042 -73.40372 3027 ft 169 kts 261°
2026-05-03 23:00 40.51109 -73.41844 3028 ft 161 kts 296°
2026-05-03 23:00 40.51567 -73.43190 3022 ft 161 kts 294°
2026-05-03 23:00 40.51785 -73.44646 3030 ft 165 kts 280°
2026-05-03 23:00 40.51909 -73.46143 3005 ft 164 kts 280°
2026-05-03 23:01 40.52073 -73.47625 3009 ft 163 kts 284°
2026-05-03 23:01 40.52403 -73.49033 3023 ft 161 kts 296°
2026-05-03 23:01 40.52933 -73.50330 3026 ft 160 kts 302°
2026-05-03 23:01 40.53510 -73.51591 3026 ft 161 kts 300°
2026-05-03 23:02 40.54030 -73.52930 2999 ft 160 kts 297°
2026-05-03 23:02 40.54514 -73.54137 3021 ft 142 kts 300°
2026-05-03 23:02 40.55006 -73.55270 3028 ft 145 kts 301°
2026-05-03 23:02 40.55510 -73.56388 3028 ft 140 kts 301°
2026-05-03 23:03 40.56021 -73.57513 3025 ft 142 kts 301°
2026-05-03 23:03 40.56520 -73.58614 3021 ft 139 kts 301°
2026-05-03 23:03 40.57015 -73.59703 2878 ft 137 kts 301°
2026-05-03 23:03 40.57506 -73.60783 2702 ft 138 kts 301°
2026-05-03 23:04 40.57990 -73.61850 2517 ft 129 kts 301°
2026-05-03 23:04 40.58440 -73.62843 2360 ft 130 kts 301°
2026-05-03 23:04 40.58896 -73.63849 2169 ft 125 kts 301°
2026-05-03 23:04 40.59349 -73.64847 2004 ft 128 kts 301°
2026-05-03 23:05 40.59803 -73.65843 1820 ft 128 kts 300°
2026-05-03 23:05 40.60258 -73.66853 1645 ft 127 kts 300°
2026-05-03 23:05 40.60714 -73.67855 1456 ft 127 kts 299°
2026-05-03 23:05 40.61167 -73.68855 1302 ft 131 kts 300°
2026-05-03 23:06 40.61616 -73.69850 1127 ft 124 kts 301°
2026-05-03 23:06 40.62073 -73.70849 975 ft 132 kts 301°
2026-05-03 23:06 40.62520 -73.71867 745 ft 121 kts 300°
2026-05-03 23:06 40.62963 -73.72841 624 ft 130 kts 301°
2026-05-03 23:07 40.63418 -73.73814 416 ft 120 kts 301°
2026-05-03 23:07 40.63867 -73.74815 308 ft 137 kts 299°
2026-05-03 23:07 40.64350 -73.75873 100 ft 129 kts 299°
2026-05-03 23:07 40.64779 -73.76829 27 ft 104 kts 300°
2026-05-03 23:08 40.65048 -73.77415 29 ft 45 kts 301°
2026-05-03 23:08 40.65137 -73.77610 30 ft 19 kts 301°
2026-05-03 23:08 40.65195 -73.77739 28 ft 11 kts 301°
2026-05-03 23:08 40.65225 -73.77834 30 ft 12 kts 281°
2026-05-03 23:09 40.65198 -73.77926 26 ft 11 kts 229°
2026-05-03 23:09 40.65193 -73.78004 29 ft 8 kts 286°
2026-05-03 23:09 40.65202 -73.78031 30 ft 0 kts 295°
2026-05-03 23:11 40.65203 -73.78033 30 ft 1 kts 295°
2026-05-03 23:11 40.65207 -73.78043 26 ft 2 kts 295°
2026-05-03 23:11 40.65214 -73.78064 31 ft 3 kts 295°
2026-05-03 23:11 40.65225 -73.78091 26 ft 3 kts 301°
2026-05-03 23:12 40.65242 -73.78126 26 ft 7 kts 302°
2026-05-03 23:12 40.65280 -73.78209 27 ft 15 kts 300°
2026-05-03 23:12 40.65334 -73.78327 27 ft 12 kts 301°
2026-05-03 23:12 40.65357 -73.78440 26 ft 15 kts 268°
2026-05-03 23:13 40.65312 -73.78583 29 ft 17 kts 242°
2026-05-03 23:13 40.65255 -73.78718 29 ft 17 kts 240°
2026-05-03 23:13 40.65210 -73.78859 28 ft 17 kts 237°
2026-05-03 23:13 40.65095 -73.78911 28 ft 17 kts 187°
2026-05-03 23:14 40.65011 -73.78994 26 ft 0 kts 237°
2026-05-03 23:14 40.64996 -73.79031 26 ft 9 kts 240°
2026-05-03 23:14 40.64950 -73.79138 23 ft 17 kts 242°
2026-05-03 23:14 40.64926 -73.79273 24 ft 0 kts 252°
2026-05-03 23:15 40.64914 -73.79288 25 ft 6 kts 231°
2026-05-03 23:15 40.64884 -73.79320 24 ft 2 kts 212°
2026-05-03 23:15 40.64842 -73.79312 25 ft 7 kts 147°
2026-05-03 23:15 40.64824 -73.79295 27 ft 8 kts 146°
2026-05-03 23:16 40.64813 -73.79287 26 ft 0 kts 148°